| time (UTC) | temp F | wind direction | speed MPH | gust MPH | rain 1hr in | rain 24hr in | rain mn in | humidity % | barometer mb |
| 20260510214815 | 60 | 36 | 1.0 | 2.0 | 0.08 | 0.28 | 0.06 | 92 | 727.0 |
| 20260510213311 | 60 | 105 | 0.0 | 2.0 | 0.04 | 0.24 | 0.05 | 91 | 727.0 |
| 20260510211829 | 60 | 57 | 0.0 | 2.0 | 0.04 | 0.24 | 0.05 | 91 | 727.0 |
| 20260510210329 | 60 | 351 | 0.0 | 2.0 | 0.04 | 0.24 | 0.05 | 91 | 727.0 |
| 20260510204827 | 60 | 134 | 2.0 | 6.0 | 0.04 | 0.20 | 0.04 | 91 | 727.0 |
| 20260510203324 | 60 | 153 | 0.0 | 12.0 | 0.08 | 0.20 | 0.04 | 91 | 727.0 |
| 20260510201825 | 60 | 49 | 1.0 | 8.0 | 0.08 | 0.20 | 0.04 | 91 | 727.0 |
| 20260510200345 | 60 | 152 | 2.0 | 4.0 | 0.04 | 0.16 | 0.03 | 91 | 727.0 |
| 20260510194826 | 61 | 144 | 1.0 | 5.0 | 0.00 | 0.12 | 0.02 | 91 | 727.0 |
| 20260510193322 | 61 | 142 | 1.0 | 5.0 | 0.00 | 0.12 | 0.02 | 91 | 705.3 |
| 20260510191821 | 60 | 94 | 1.0 | 4.0 | 0.00 | 0.12 | 0.02 | 92 | 772.1 |
| 20260510190323 | 60 | 327 | 1.0 | 3.0 | 0.00 | 0.12 | 0.02 | 92 | 390.4 |
| 20260510184841 | 60 | 50 | 0.0 | 3.0 | 0.00 | 0.12 | 0.02 | 92 | |
| 20260510183318 | 60 | 119 | 0.0 | 2.0 | 0.00 | 0.12 | 0.02 | 92 | 663.8 |
| 20260510181818 | 60 | 149 | 0.0 | 2.0 | 0.04 | 0.12 | 0.02 | 92 | 663.8 |
| 20260510180317 | 60 | 117 | 2.0 | 7.0 | 0.08 | 0.12 | 0.02 | 92 | |
| 20260510174817 | 60 | 161 | 0.0 | 0.0 | 0.12 | 0.12 | 0.02 | 91 | |
| 20260510173316 | 60 | 161 | 0.0 | 0.0 | 0.12 | 0.12 | 0.02 | 91 | |
| 20260510171835 | 60 | 161 | 0.0 | 0.0 | 0.08 | 0.08 | 0.02 | 91 | |
| 20260510170315 | 60 | 161 | 0.0 | 0.0 | 0.04 | 0.04 | 0.01 | 91 | |
| 20260510164813 | 60 | 154 | 0.0 | 0.0 | 0.00 | 0.00 | 0.00 | 91 | |
| 20260510161841 | 60 | 146 | 0.0 | 3.0 | 0.00 | 0.00 | 0.00 | 92 | |
| 20260510160318 | 58 | 237 | 0.0 | 0.0 | 0.00 | 0.00 | 0.00 | 92 | |
| 20260510154819 | 58 | 237 | 0.0 | 0.0 | 0.00 | 0.00 | 0.00 | 92 | |
| 20260510153336 | 58 | 209 | 0.0 | 0.0 | 0.00 | 0.00 | 0.00 | 92 | |
| 20260510151813 | 58 | 172 | 0.0 | 0.0 | 0.00 | 0.00 | 0.00 | 93 | |
| 20260510150313 | 58 | 150 | 1.0 | 2.0 | 0.00 | 0.00 | 0.00 | 93 | |
| 20260510144830 | 57 | 333 | 0.0 | 0.0 | 0.00 | 0.00 | 0.00 | 92 | |
| 20260510143347 | 57 | 333 | 0.0 | 0.0 | 0.00 | 0.00 | 0.00 | 92 | |
| 20260510141828 | 56 | 333 | 0.0 | 0.0 | 0.00 | 0.00 | 0.00 | 92 | |
| 20260510140323 | 56 | 333 | 0.0 | 2.0 | 0.00 | 0.00 | 0.00 | 92 | |
| 20260510134825 | 56 | 300 | 0.0 | 2.0 | 0.00 | 0.00 | 0.00 | 92 | |
| 20260510133321 | 56 | 351 | 0.0 | 2.0 | 0.00 | 0.00 | 0.00 | 92 | |
| 20260510131819 | 56 | 351 | 0.0 | 0.0 | 0.00 | 0.00 | 0.00 | 92 | |
| 20260510130341 | 56 | 283 | 0.0 | 2.0 | 0.00 | 0.00 | 0.00 | 92 | |
| 20260510124817 | 56 | 284 | 0.0 | 2.0 | 0.00 | 0.00 | 0.00 | 92 | |
| 20260510123312 | 56 | 303 | 1.0 | 2.0 | 0.00 | 0.00 | 0.00 | 91 | |
| 20260510121815 | 56 | 336 | 0.0 | 0.0 | 0.00 | 0.00 | 0.00 | 92 | |
| 20260510120333 | 56 | 336 | 0.0 | 2.0 | 0.00 | 0.00 | 0.00 | 91 | |
| 20260510114834 | 56 | 336 | 0.0 | 2.0 | 0.00 | 0.00 | 0.00 | 91 | |
| 20260510113310 | 56 | 331 | 0.0 | 2.0 | 0.00 | 0.00 | 0.00 | 91 | |
| 20260510111848 | 56 | 328 | 0.0 | 2.0 | 0.00 | 0.00 | 0.00 | 91 | |
| 20260510110330 | 56 | 293 | 0.0 | 2.0 | 0.00 | 0.00 | 0.00 | 91 | |
| 20260510104828 | 56 | 293 | 0.0 | 1.0 | 0.00 | 0.00 | 0.00 | 91 | |
| 20260510103325 | 56 | 293 | 0.0 | 2.0 | 0.00 | 0.00 | 0.00 | 90 | |
| 20260510100311 | 56 | 252 | 0.0 | 0.0 | 0.00 | 0.00 | 0.00 | 90 | |
| 20260510094813 | 56 | 252 | 0.0 | 2.0 | 0.00 | 0.00 | 0.00 | 90 | |
| 20260510093332 | 57 | 252 | 0.0 | 2.0 | 0.00 | 0.00 | 0.00 | 89 | |
| 20260510091850 | 57 | 252 | 0.0 | 2.0 | 0.00 | 0.00 | 0.00 | 89 | |
| 20260510090310 | 57 | 252 | 0.0 | 0.0 | 0.00 | 0.00 | 0.00 | 88 | |
| 20260510084827 | 58 | 252 | 0.0 | 0.0 | 0.00 | 0.00 | 0.00 | 88 | |
| 20260510083325 | 58 | 252 | 0.0 | 0.0 | 0.00 | 0.00 | 0.00 | 87 | |
| 20260510081827 | 58 | 252 | 0.0 | 0.0 | 0.00 | 0.00 | 0.00 | 87 | |
| 20260510074830 | 59 | 252 | 0.0 | 0.0 | 0.00 | 0.00 | 0.00 | 85 | |
| 20260510073311 | 60 | 252 | 0.0 | 0.0 | 0.00 | 0.00 | 0.00 | 84 | |
| 20260510071829 | 61 | 252 | 0.0 | 0.0 | 0.00 | 0.00 | 0.00 | 82 | |
| 20260510070330 | 62 | 252 | 0.0 | 0.0 | 0.00 | 0.00 | 0.00 | 80 | |
| 20260510064849 | 64 | 227 | 0.0 | 0.0 | 0.00 | 0.00 | 0.00 | 76 | |
| 20260510063325 | 66 | 219 | 0.0 | 2.0 | 0.00 | 0.00 | 0.00 | 72 | |
| 20260510061825 | 67 | 150 | 0.0 | 2.0 | 0.00 | 0.00 | 0.00 | 67 | |
| 20260510060323 | 67 | 124 | 2.0 | 4.0 | 0.00 | 0.00 | 0.00 | 66 | |
| 20260510054820 | 68 | 184 | 1.0 | 7.0 | 0.00 | 0.00 | 0.00 | 67 | |
| 20260510053322 | 69 | 135 | 1.0 | 5.0 | 0.00 | 0.00 | 0.00 | 66 | |
| 20260510051820 | 69 | 156 | 2.0 | 5.0 | 0.00 | 0.00 | 0.00 | 66 | |
| 20260510050320 | 69 | 170 | 2.0 | 6.0 | 0.00 | 0.00 | 0.00 | 65 | |
| 20260510044816 | 69 | 176 | 4.0 | 7.0 | 0.00 | 0.00 | 0.00 | 64 | |
| 20260510043313 | 70 | 150 | 2.0 | 4.0 | 0.00 | 0.00 | 0.00 | 63 | |
| 20260510041816 | 70 | 153 | 2.0 | 8.0 | 0.00 | 0.00 | 0.00 | 62 | |
| 20260510040312 | 70 | 138 | 2.0 | 6.0 | 0.00 | 0.00 | 0.00 | 61 | |
| 20260510034828 | 70 | 144 | 2.0 | 4.0 | 0.00 | 0.00 | 0.00 | 61 | |
| 20260510033328 | 71 | 155 | 2.0 | 9.0 | 0.00 | 0.00 | 0.00 | 59 | |
| 20260510031824 | 71 | 159 | 2.0 | 5.0 | 0.00 | 0.00 | 0.00 | 59 | |
| 20260510030325 | 71 | 137 | 2.0 | 4.0 | 0.00 | 0.00 | 0.00 | 60 | |
| 20260510024822 | 71 | 167 | 2.0 | 5.0 | 0.00 | 0.00 | 0.00 | 60 | |
| 20260510023321 | 71 | 143 | 2.0 | 5.0 | 0.00 | 0.00 | 0.00 | 61 | |
| 20260510021825 | 70 | 39 | 1.0 | 3.0 | 0.00 | 0.00 | 0.00 | 62 | |
| 20260510020324 | 71 | 140 | 2.0 | 5.0 | 0.00 | 0.00 | 0.00 | 62 | |
| 20260510014828 | 70 | 141 | 1.0 | 8.0 | 0.00 | 0.00 | 0.00 | 60 | |
| 20260510013347 | 70 | 144 | 3.0 | 8.0 | 0.00 | 0.00 | 0.00 | 60 | |
| 20260510011826 | 69 | 138 | 2.0 | 4.0 | 0.00 | 0.00 | 0.00 | 63 | |
| 20260510010330 | 68 | 215 | 1.0 | 5.0 | 0.00 | 0.00 | 0.00 | 66 | |
| 20260510004828 | 69 | 156 | 1.0 | 3.0 | 0.00 | 0.00 | 0.00 | 67 | |
| 20260510003311 | 67 | 134 | 2.0 | 7.0 | 0.00 | 0.00 | 0.00 | 68 | |
| 20260510001852 | 66 | 144 | 1.0 | 4.0 | 0.00 | 0.00 | 0.00 | 74 | |
| 20260510000329 | 65 | 146 | 1.0 | 3.0 | 0.00 | 0.00 | 0.00 | 81 | |
| 20260509234852 | 62 | 144 | 1.0 | 3.0 | 0.00 | 0.00 | 0.00 | 92 | |
| 20260509233328 | 61 | 57 | 0.0 | 0.0 | 0.00 | 0.00 | 0.00 | 94 | |
| 20260509231826 | 60 | 57 | 0.0 | 0.0 | 0.00 | 0.00 | 0.00 | 94 | |
| 20260509230328 | 59 | 57 | 0.0 | 1.0 | 0.00 | 0.00 | 0.00 | 94 | |
| 20260509224827 | 58 | 360 | 0.0 | 0.0 | 0.00 | 0.00 | 0.00 | 94 | |
| 20260509223348 | 57 | 360 | 0.0 | 0.0 | 0.00 | 0.00 | 0.00 | 94 | |
| 20260509221825 | 57 | 360 | 1.0 | 2.0 | 0.00 | 0.00 | 0.00 | 94 | |
| 20260509220322 | 55 | 21 | 0.0 | 0.0 | 0.00 | 0.00 | 0.00 | 94 |